TimeEEST,TemperatureF,Dew PointF,Humidity,Sea Level PressureIn,VisibilityMPH,Wind Direction,Wind SpeedMPH,Gust SpeedMPH,PrecipitationIn,Events,Conditions,WindDirDegrees,DateUTC
12:50 AM,55.4,48.2,77,30.06,-9999.0,Calm,Calm,-,N/A,,Clear,0,2013-04-13 21:50:00
1:50 AM,59.0,50.0,72,30.06,-9999.0,Calm,Calm,-,N/A,,Clear,0,2013-04-13 22:50:00
2:50 AM,59.0,50.0,72,30.06,-9999.0,Calm,Calm,-,N/A,,Clear,0,2013-04-13 23:50:00
3:50 AM,59.0,51.8,77,30.06,-9999.0,Calm,Calm,-,N/A,,Clear,0,2013-04-14 00:50:00
4:50 AM,59.0,51.8,77,30.06,-9999.0,Calm,Calm,-,N/A,,Clear,0,2013-04-14 01:50:00
5:50 AM,55.4,50.0,82,30.06,-9999.0,Calm,Calm,-,N/A,,Clear,0,2013-04-14 02:50:00
6:50 AM,55.4,50.0,82,30.06,-9999.0,Calm,Calm,-,N/A,,Clear,0,2013-04-14 03:50:00
7:20 AM,57.2,50.0,77,30.06,-9999.0,Calm,Calm,-,N/A,,Clear,0,2013-04-14 04:20:00
7:50 AM,57.2,50.0,77,30.06,6.2,Calm,Calm,-,N/A,,Mostly Cloudy,0,2013-04-14 04:50:00
8:50 AM,69.8,42.8,38,30.06,6.2,NW,9.2,-,N/A,,Mostly Cloudy,310,2013-04-14 05:50:00
9:20 AM,69.8,44.6,40,30.06,-9999.0,NW,9.2,-,N/A,,Clear,310,2013-04-14 06:20:00
9:50 AM,73.4,42.8,33,30.06,-9999.0,NW,13.8,-,N/A,,Clear,320,2013-04-14 06:50:00
10:50 AM,73.4,44.6,36,30.06,-9999.0,NNW,11.5,-,N/A,,Clear,330,2013-04-14 07:50:00
11:20 AM,75.2,44.6,34,30.06,-9999.0,NNW,11.5,23.0,N/A,,Clear,340,2013-04-14 08:20:00
11:50 AM,75.2,44.6,34,30.06,-9999.0,NNW,11.5,23.0,N/A,,Clear,340,2013-04-14 08:50:00
12:20 PM,75.2,44.6,34,30.06,-9999.0,North,11.5,23.0,N/A,,Clear,360,2013-04-14 09:20:00
12:50 PM,75.2,44.6,34,30.06,6.2,North,13.8,25.3,N/A,,Mostly Cloudy,350,2013-04-14 09:50:00
1:50 PM,75.2,41.0,29,30.06,6.2,North,12.7,25.3,N/A,,Mostly Cloudy,350,2013-04-14 10:50:00
2:20 PM,75.2,42.8,31,30.06,6.2,North,16.1,27.6,N/A,,Mostly Cloudy,350,2013-04-14 11:20:00
2:50 PM,75.2,44.6,34,30.06,6.2,North,13.8,26.5,N/A,,Mostly Cloudy,350,2013-04-14 11:50:00
3:20 PM,75.2,46.4,36,30.04,6.2,North,12.7,24.2,N/A,,Scattered Clouds,350,2013-04-14 12:20:00
3:50 PM,75.2,46.4,36,30.04,6.2,North,13.8,27.6,N/A,,Partly Cloudy,350,2013-04-14 12:50:00
4:50 PM,73.4,48.2,41,30.04,6.2,North,16.1,28.8,N/A,,Scattered Clouds,360,2013-04-14 13:50:00
5:20 PM,68.0,50.0,52,30.04,6.2,North,20.7,34.5,N/A,,Scattered Clouds,360,2013-04-14 14:20:00
5:50 PM,66.2,50.0,56,30.06,6.2,North,15.0,27.6,N/A,,Scattered Clouds,360,2013-04-14 14:50:00
6:20 PM,64.4,50.0,59,30.06,6.2,North,11.5,23.0,N/A,,Mostly Cloudy,360,2013-04-14 15:20:00
6:50 PM,64.4,48.2,56,30.09,6.2,North,9.2,-,N/A,,Mostly Cloudy,350,2013-04-14 15:50:00
7:20 PM,64.4,46.4,52,30.09,6.2,North,8.1,-,N/A,,Scattered Clouds,350,2013-04-14 16:20:00
7:50 PM,62.6,46.4,55,30.09,6.2,North,8.1,-,N/A,,Scattered Clouds,360,2013-04-14 16:50:00
8:20 PM,62.6,44.6,52,30.09,6.2,NNW,9.2,-,N/A,,Scattered Clouds,330,2013-04-14 17:20:00
8:50 PM,60.8,46.4,59,30.09,6.2,NNW,6.9,-,N/A,,Scattered Clouds,340,2013-04-14 17:50:00
9:20 PM,62.6,46.4,55,30.09,6.2,NW,12.7,-,N/A,,Partly Cloudy,320,2013-04-14 18:20:00
10:20 PM,60.8,44.6,55,30.09,6.2,NW,5.8,-,N/A,,Partly Cloudy,310,2013-04-14 19:20:00
10:50 PM,60.8,44.6,55,30.09,6.2,NNW,8.1,-,N/A,,Partly Cloudy,330,2013-04-14 19:50:00
11:20 PM,59.0,44.6,59,30.09,6.2,NNW,8.1,-,N/A,,Partly Cloudy,340,2013-04-14 20:20:00
11:50 PM,59.0,44.6,59,30.09,6.2,North,8.1,-,N/A,,Partly Cloudy,350,2013-04-14 20:50:00